Location: Newark
(7.0858°N, 171.3717°E)
Time: 09:35:25
(UTC+00:00)

A-11 Canister half - Pass Details

Date: 13 December 2020
Orbit: 1517 x 1683 km, 47.2° (Epoch: 19 January)

Event Time Altitude Azimuth Distance (km) Brightness Sun altitude
Rises 16:42:13 0° 207° (SSW) 4,656 11.5 -27.3°
Reaches altitude 10° 16:45:22 10° 202° (SSW) 3,672 11.0 -26.6°
Maximum altitude 16:54:13 51° 129° (SE) 1,856 9.7 -24.5°
Drops below altitude 10° 17:03:10 10° 56° (NE) 3,724 11.4 -22.5°
Sets 17:06:22 0° 51° (NE) 4,727 12.0 -21.7°
